Location: Bakov nad Jizerou
(50.4784°N, 14.9394°E)
Time: 09:16:39
(UTC+00:00)

BREEZE-M DEB (TANK) - Pass Details

Date: 16 June 2021
Orbit: 335 x 16572 km, 49.3° (Epoch: 04 August)

Event Time Altitude Azimuth Distance (km) Brightness Sun altitude
Rises 22:53:46 0° 244° (WSW) 5,852 7.3 -16.1°
Reaches altitude 10° 22:59:13 10° 241° (WSW) 3,351 6.0 -16.1°
Maximum altitude 23:05:19 50° 167° (SSE) 719 2.5 -16.1°
Drops below altitude 10° 23:07:55 10° 88° (E) 1,433 4.5 -16.1°
Sets 23:09:22 0° 82° (E) 2,149 5.5 -16.1°
